Theta_e
314 313 316 318 319 322 324 325 327 327 328 327 327 327 327 327 327 327 326 326 326 326 325 325 324 324 323 326 324 323 323 322 322 322 320 320 320 318 317 316 315 313 312
312 313 313 312 317 323 324 326 326 327 328 327 326 327 328 328 328 328 327 327 326 325 327 326 325 327 325 325 323 323 323 323 322 320 320 319 317 317 316 315 314 313 312
310 311 312 312 311 315 324 326 327 327 328 328 328 327 328 329 329 328 328 328 326 328 328 326 326 328 325 326 325 324 324 324 322 321 321 319 317 317 316 314 313 312 310
311 310 311 311 312 312 311 318 325 326 326 327 327 327 328 329 329 329 329 328 328 329 328 327 327 327 324 325 326 325 325 322 322 320 318 319 317 316 315 313 311 309 305
310 310 311 311 311 312 311 310 312 314 319 320 320 325 326 325 328 329 328 328 329 329 329 327 326 326 327 325 326 325 323 321 322 318 318 317 317 314 312 312 309 304 302
309 308 310 311 311 312 312 312 310 312 314 316 321 321 322 324 322 323 328 328 328 328 327 328 327 326 325 327 325 324 322 321 321 319 318 316 314 312 311 310 304 301 300
309 308 306 308 312 313 312 312 312 310 314 317 318 322 325 327 326 325 326 323 328 329 328 327 326 325 326 326 325 323 322 321 318 317 315 315 312 311 310 307 302 300 298
309 309 308 306 307 312 313 312 312 312 311 316 317 321 323 323 324 324 325 325 327 327 326 325 326 325 326 324 322 322 319 318 315 313 312 311 310 309 306 302 300 298 297
308 309 309 308 307 307 312 313 311 310 312 311 316 319 319 320 323 325 323 325 325 321 325 325 326 325 325 323 320 319 318 314 312 311 310 309 308 304 301 299 297 296 294
306 308 308 308 307 306 306 309 311 310 310 310 310 313 321 322 324 324 325 326 324 324 325 325 324 324 323 321 319 317 315 313 311 310 307 306 302 300 299 297 296 294 289
303 306 308 309 308 307 306 306 307 308 308 308 309 311 316 320 322 323 324 324 323 324 324 323 322 319 319 317 315 315 314 312 310 307 304 301 299 298 296 296 293 288 287
299 302 305 307 308 308 306 306 306 306 306 307 308 310 312 318 319 321 321 321 323 323 322 321 319 318 316 314 314 311 310 310 306 303 301 299 298 296 295 292 287 287 286
298 299 301 304 307 308 306 305 304 305 304 305 308 311 312 317 318 320 321 321 321 321 320 319 317 315 314 313 310 310 309 305 304 301 299 298 296 295 291 287 287 286 285
297 298 298 300 304 306 307 304 302 301 302 304 307 310 314 315 316 317 318 318 317 317 317 316 314 313 311 310 308 306 304 302 302 300 297 295 295 290 287 286 286 285 284
294 296 297 297 299 303 306 304 300 300 299 300 303 306 309 313 315 315 315 315 315 313 313 311 310 309 307 305 305 303 300 298 296 296 295 295 290 287 286 285 284 284 283
292 293 294 295 296 298 301 305 303 301 300 299 300 302 304 306 310 312 313 311 311 311 310 310 307 306 306 306 303 299 296 295 295 294 294 291 287 286 285 284 283 283 282
289 291 292 293 293 293 294 298 301 304 302 299 299 299 302 302 303 306 307 307 307 308 308 308 307 306 306 305 302 298 296 294 294 294 291 286 286 285 284 283 283 282 282
287 288 290 290 291 292 293 292 295 296 301 302 300 300 300 300 301 302 303 304 304 304 306 306 307 307 305 303 300 298 295 294 293 291 286 286 285 284 284 283 282 282 281
285 285 285 287 289 290 291 293 294 296 298 301 299 298 299 300 301 300 302 303 303 302 301 304 306 306 305 303 301 296 294 293 292 286 285 285 284 284 283 282 282 281 280
284 283 282 284 286 289 290 289 292 293 294 297 298 297 298 299 300 298 298 301 302 303 303 304 304 305 304 302 297 294 292 292 287 285 285 284 283 283 282 282 281 280 279
280 280 279 280 282 284 287 288 289 291 292 293 295 296 296 298 299 300 301 300 300 300 302 302 303 304 303 299 295 293 293 289 285 285 283 283 283 282 282 281 281 279 278
277 278 277 277 278 280 282 285 287 289 291 292 293 294 295 296 297 299 299 300 300 300 301 303 303 303 302 297 294 293 291 286 285 284 283 283 282 282 281 280 279 278 277
272 273 273 274 276 278 280 281 284 287 290 291 292 293 294 294 295 296 297 298 299 301 301 301 301 300 297 295 293 292 290 285 285 284 283 282 282 281 281 279 279 278 277
270 270 270 271 273 276 278 280 282 286 289 290 291 292 293 293 294 294 295 295 296 298 301 300 298 298 296 294 292 289 285 284 283 283 282 282 281 281 280 279 278 277 275
268 269 269 269 270 273 275 278 281 283 287 290 291 291 292 292 293 293 293 293 294 293 295 297 296 294 293 292 290 284 283 283 282 282 281 281 280 279 279 278 277 276 274
266 266 267 268 268 270 272 276 278 281 286 289 290 291 291 292 292 293 293 292 292 292 291 290 292 292 291 289 284 282 282 282 281 281 284 283 280 279 278 277 276 275 273
Wind_Speed
16 20 31 38 42 46 49 49 53 54 55 50 49 52 53 51 47 46 48 47 47 46 50 48 47 44 42 40 37 35 34 33 32 31 29 25 22 20 21 17 16 14 14
19 22 24 28 34 40 45 47 45 49 51 49 45 48 51 53 50 46 46 45 43 52 51 49 45 44 41 38 36 34 33 33 32 32 30 28 22 22 20 17 15 14 15
26 24 23 24 28 35 41 43 45 45 47 49 48 44 47 48 47 46 45 42 45 52 49 48 46 43 40 37 35 35 32 33 29 26 28 28 27 21 19 18 17 16 16
29 30 32 31 25 27 34 41 44 45 45 47 45 44 44 44 45 43 42 43 47 51 47 45 43 44 40 34 36 32 35 26 26 26 26 25 25 21 20 18 17 16 15
30 32 33 32 33 30 28 32 38 44 46 44 40 42 38 39 48 45 36 38 48 47 45 43 38 39 36 35 33 33 30 33 31 22 28 28 24 22 20 21 20 17 14
33 31 28 31 32 33 33 30 32 36 39 41 42 42 43 43 38 34 38 37 44 46 43 38 38 38 34 34 30 31 27 31 30 29 30 26 23 21 21 21 21 17 14
31 32 33 27 28 31 32 34 33 34 34 38 38 39 41 42 39 37 33 30 48 47 38 35 37 39 38 34 33 27 27 30 24 26 25 26 22 22 21 23 19 17 16
32 34 35 34 30 28 31 36 36 33 35 35 36 39 39 42 40 36 37 33 37 33 34 35 40 38 36 32 26 28 29 29 28 24 22 21 20 19 19 16 16 16 13
33 33 35 38 38 32 31 33 36 35 32 36 35 38 38 40 37 37 33 38 37 36 36 37 40 39 35 34 28 29 28 29 25 24 24 23 22 22 20 17 15 14 12
34 35 34 36 39 38 35 33 34 34 34 31 32 34 36 34 33 37 37 37 37 40 38 40 39 36 35 30 30 26 32 30 30 30 26 24 24 23 20 17 14 13 11
34 35 36 36 38 38 37 35 32 33 32 32 31 32 32 32 34 36 37 38 36 37 42 37 34 34 32 26 25 30 29 29 32 28 26 26 25 21 17 15 13 12 12
37 35 36 37 37 38 37 36 32 30 32 31 31 30 29 30 36 36 36 35 38 40 37 36 38 34 29 26 30 27 26 33 33 31 28 27 23 19 17 16 14 13 11
38 40 37 36 37 38 38 36 34 29 27 29 28 27 25 32 36 40 39 35 34 35 36 35 33 30 31 31 30 29 36 35 33 31 28 24 20 19 19 17 14 13 10
38 39 41 39 37 37 38 36 33 29 27 27 30 30 30 30 36 38 37 34 34 33 33 36 36 35 35 35 37 38 37 34 32 29 27 24 23 22 19 16 14 11 8
37 38 39 41 39 37 36 35 33 28 24 27 31 31 34 36 39 38 39 39 38 37 37 37 40 41 43 44 43 42 39 35 33 29 27 26 25 22 20 17 14 10 8
38 38 39 40 40 38 37 37 33 30 24 24 29 32 32 35 38 39 39 38 37 40 41 44 45 47 49 47 46 44 40 38 35 31 28 27 25 23 21 18 14 11 10
37 37 39 41 39 39 39 35 37 33 29 24 24 27 32 31 32 33 36 36 39 42 45 46 50 50 51 49 47 45 43 39 34 31 31 30 26 24 21 17 14 11 10
36 36 37 39 41 40 39 37 35 35 34 34 27 26 27 28 26 28 30 33 40 42 48 49 51 52 53 50 46 45 44 40 38 36 33 31 29 24 21 18 14 11 10
41 39 37 41 41 42 39 39 35 35 34 32 36 31 27 25 24 27 31 38 46 46 50 51 54 53 51 47 45 45 43 41 41 39 36 33 29 25 21 17 13 10 10
44 43 41 43 45 43 41 38 37 35 37 35 35 37 33 26 30 32 38 40 47 50 52 51 51 51 50 48 48 46 45 44 42 39 36 34 29 24 20 16 12 10 10
46 47 47 47 45 43 41 40 38 34 37 40 39 36 36 35 37 42 43 45 49 52 53 53 53 53 52 50 48 47 46 44 41 38 37 33 28 24 20 16 12 11 10
44 46 48 51 49 46 43 39 37 36 35 39 42 39 36 38 40 46 48 49 50 51 51 52 53 54 54 51 49 48 47 44 41 39 36 30 26 23 18 14 12 10 9
43 45 50 53 51 48 46 41 38 36 37 38 38 40 39 39 43 46 49 52 53 52 52 52 53 55 51 47 45 46 44 44 41 38 34 28 24 19 16 14 11 10 9
42 45 47 50 50 48 46 44 39 39 35 39 38 38 39 41 45 46 48 52 55 56 53 53 53 51 48 46 47 45 45 42 38 34 28 24 19 18 16 13 11 10 9
41 44 45 46 46 46 44 42 39 36 33 37 39 37 37 41 44 46 47 51 55 56 56 54 50 48 47 47 44 44 40 37 34 30 25 18 16 16 14 12 11 10 10
42 42 43 43 43 43 42 41 39 34 32 36 38 36 37 40 44 47 49 52 53 54 51 48 47 46 45 43 44 44 42 37 31 23 18 17 17 15 13 13 12 11 10
Wind_Direction
324 294 272 267 266 266 265 264 265 266 265 266 267 268 269 269 266 263 258 257 258 259 257 256 254 251 250 252 251 250 250 250 251 250 247 257 241 239 244 251 253 255 259
320 320 312 290 274 268 266 264 266 266 266 267 266 269 269 268 266 264 261 261 258 259 256 255 253 247 247 248 249 249 248 248 248 244 256 230 244 228 242 238 250 251 245
308 305 307 313 296 273 269 268 267 266 267 267 266 267 268 266 267 266 265 260 265 260 254 255 255 246 246 244 247 248 248 245 238 248 245 248 238 229 233 245 240 236 233
309 305 303 307 305 300 276 267 267 267 266 265 268 271 267 267 269 267 266 266 264 257 256 257 252 249 246 245 248 244 244 237 238 233 245 235 217 234 225 231 226 223 226
325 314 309 303 301 297 293 279 271 265 263 262 262 264 266 268 267 262 267 266 261 257 257 258 255 251 245 243 241 241 239 244 224 243 233 229 241 222 234 228 214 214 223
343 329 314 306 301 297 290 291 282 272 265 263 262 260 262 261 258 262 262 265 261 256 253 256 252 248 242 242 238 247 237 237 233 241 230 242 226 227 227 216 211 211 215
345 338 325 311 298 296 289 283 283 280 272 263 259 260 258 260 261 260 256 261 261 256 252 252 250 245 237 232 230 223 226 225 226 231 240 233 227 230 223 211 211 218 226
330 334 337 326 309 294 292 289 281 279 275 265 262 255 255 257 257 254 257 256 258 254 256 256 250 241 237 230 228 222 215 218 228 235 221 224 223 223 211 210 214 219 231
325 325 331 333 326 310 292 293 293 282 273 272 264 259 254 254 255 252 249 251 251 252 252 247 246 239 233 221 229 219 226 221 216 214 208 203 202 200 201 207 215 226 229
330 329 328 330 331 326 308 293 293 290 280 268 267 263 259 253 250 250 248 238 248 250 244 241 235 234 231 222 216 231 224 220 213 201 196 194 192 194 201 213 223 229 230
328 328 328 328 330 332 320 303 297 292 283 272 265 263 256 253 252 250 247 246 246 245 243 232 229 215 212 226 235 224 222 215 199 196 191 191 194 196 205 213 216 221 233
326 328 329 329 330 328 327 314 302 296 285 275 266 260 255 251 253 247 248 241 244 240 235 234 214 214 218 221 215 211 212 203 194 192 193 192 194 198 205 209 214 216 221
322 325 328 328 327 328 328 323 310 302 293 282 276 266 255 248 245 243 239 237 235 231 233 227 218 224 218 212 206 206 201 196 195 194 193 193 193 199 204 206 207 210 211
323 323 325 327 327 326 326 327 318 308 298 289 281 270 261 250 241 234 226 221 223 218 224 223 214 211 211 205 196 195 196 199 200 198 192 191 196 196 199 202 204 209 217
321 320 322 325 326 324 322 323 321 312 299 289 282 276 267 253 242 235 230 221 217 210 208 208 208 204 197 195 197 197 195 196 195 192 194 195 194 194 195 197 196 209 226
319 317 317 319 323 324 321 319 319 317 311 295 278 274 272 265 253 244 236 227 225 220 212 212 205 201 199 198 199 194 192 193 193 193 195 197 196 193 191 190 196 208 231
317 315 313 315 317 319 318 316 314 315 311 304 293 276 270 267 261 251 239 237 233 223 220 218 210 205 203 201 200 197 195 194 196 194 196 193 190 188 186 190 199 216 237
312 310 310 309 311 312 313 311 308 305 306 304 300 287 274 267 260 247 242 235 225 226 224 219 213 208 206 203 199 199 199 194 193 194 194 191 187 187 186 193 205 218 240
308 307 306 304 305 307 308 306 304 300 296 296 295 284 272 262 257 247 236 230 224 218 216 214 214 211 208 206 204 202 199 197 194 192 190 189 186 184 187 195 206 221 242
300 302 300 298 301 303 305 304 302 298 294 290 285 281 276 257 239 234 235 229 226 223 220 219 217 214 210 208 204 200 197 196 193 190 189 187 184 185 188 195 206 224 241
299 297 298 297 296 298 298 297 296 292 287 283 281 281 278 265 247 235 228 227 227 226 224 221 219 217 214 208 203 199 198 195 192 190 189 187 185 186 190 193 204 220 237
299 296 293 291 293 294 294 293 290 288 282 278 279 277 275 267 259 243 235 230 229 228 227 227 223 220 216 208 203 200 196 193 190 189 191 188 185 189 190 197 205 218 235
302 295 291 289 289 290 289 289 287 285 281 276 275 272 267 265 256 250 244 236 231 228 228 228 226 221 213 206 203 202 198 195 190 190 190 187 190 190 197 201 207 217 228
302 298 295 293 291 289 288 286 283 284 278 277 277 275 271 265 259 253 244 238 236 231 229 227 226 220 210 201 198 197 196 191 186 186 187 190 190 198 204 205 211 216 224
304 299 297 296 294 291 288 284 280 278 275 273 272 273 270 265 261 246 237 237 235 232 228 222 217 211 205 198 189 192 186 184 183 183 183 187 202 208 207 210 213 217 224
305 300 298 297 294 292 289 286 280 277 273 270 268 269 267 257 249 248 242 239 237 234 228 217 208 201 194 183 185 183 182 180 180 176 186 204 210 211 214 216 216 217 225